Index of /20260505/WXO-DD/model_caps/3km/00/002
Name Last modified Size Description
Parent Directory -
20260505T00Z_MSC_CAPS_AbsoluteVorticity_IsbL-0250_RLatLon0.03_PT002H.grib2 2026-05-05 06:05 1.1M
20260505T00Z_MSC_CAPS_AbsoluteVorticity_IsbL-0500_RLatLon0.03_PT002H.grib2 2026-05-05 06:05 1.1M
20260505T00Z_MSC_CAPS_AbsoluteVorticity_IsbL-0700_RLatLon0.03_PT002H.grib2 2026-05-05 06:05 1.0M
20260505T00Z_MSC_CAPS_AbsoluteVorticity_IsbL-0850_RLatLon0.03_PT002H.grib2 2026-05-05 06:05 1.2M
20260505T00Z_MSC_CAPS_AbsoluteVorticity_IsbL-1000_RLatLon0.03_PT002H.grib2 2026-05-05 06:05 1.3M
20260505T00Z_MSC_CAPS_AirDensity_AGL-120m_RLatLon0.03_PT002H.grib2 2026-05-05 06:05 1.4M
20260505T00Z_MSC_CAPS_AirDensity_AGL-40m_RLatLon0.03_PT002H.grib2 2026-05-05 06:05 1.4M
20260505T00Z_MSC_CAPS_AirDensity_AGL-80m_RLatLon0.03_PT002H.grib2 2026-05-05 06:05 1.4M
20260505T00Z_MSC_CAPS_AirTemp_AGL-120m_RLatLon0.03_PT002H.grib2 2026-05-05 06:05 1.4M
20260505T00Z_MSC_CAPS_AirTemp_AGL-2m_RLatLon0.03_PT002H.grib2 2026-05-05 06:05 1.8M
20260505T00Z_MSC_CAPS_AirTemp_AGL-40m_RLatLon0.03_PT002H.grib2 2026-05-05 06:05 1.4M
20260505T00Z_MSC_CAPS_AirTemp_AGL-80m_RLatLon0.03_PT002H.grib2 2026-05-05 06:05 1.4M
20260505T00Z_MSC_CAPS_AirTemp_IsbL-0050_RLatLon0.03_PT002H.grib2 2026-05-05 06:05 702K
20260505T00Z_MSC_CAPS_AirTemp_IsbL-0100_RLatLon0.03_PT002H.grib2 2026-05-05 06:05 951K
20260505T00Z_MSC_CAPS_AirTemp_IsbL-0150_RLatLon0.03_PT002H.grib2 2026-05-05 06:05 740K
20260505T00Z_MSC_CAPS_AirTemp_IsbL-0175_RLatLon0.03_PT002H.grib2 2026-05-05 06:05 760K
20260505T00Z_MSC_CAPS_AirTemp_IsbL-0200_RLatLon0.03_PT002H.grib2 2026-05-05 06:05 778K
20260505T00Z_MSC_CAPS_AirTemp_IsbL-0225_RLatLon0.03_PT002H.grib2 2026-05-05 06:05 783K
20260505T00Z_MSC_CAPS_AirTemp_IsbL-0250_RLatLon0.03_PT002H.grib2 2026-05-05 06:05 776K
20260505T00Z_MSC_CAPS_AirTemp_IsbL-0275_RLatLon0.03_PT002H.grib2 2026-05-05 06:05 1.0M
20260505T00Z_MSC_CAPS_AirTemp_IsbL-0300_RLatLon0.03_PT002H.grib2 2026-05-05 06:05 1.0M
20260505T00Z_MSC_CAPS_AirTemp_IsbL-0350_RLatLon0.03_PT002H.grib2 2026-05-05 06:05 751K
20260505T00Z_MSC_CAPS_AirTemp_IsbL-0400_RLatLon0.03_PT002H.grib2 2026-05-05 06:05 758K
20260505T00Z_MSC_CAPS_AirTemp_IsbL-0450_RLatLon0.03_PT002H.grib2 2026-05-05 06:05 767K
20260505T00Z_MSC_CAPS_AirTemp_IsbL-0500_RLatLon0.03_PT002H.grib2 2026-05-05 06:05 778K
20260505T00Z_MSC_CAPS_AirTemp_IsbL-0550_RLatLon0.03_PT002H.grib2 2026-05-05 06:05 948K
20260505T00Z_MSC_CAPS_AirTemp_IsbL-0600_RLatLon0.03_PT002H.grib2 2026-05-05 06:05 964K
20260505T00Z_MSC_CAPS_AirTemp_IsbL-0650_RLatLon0.03_PT002H.grib2 2026-05-05 06:05 1.0M
20260505T00Z_MSC_CAPS_AirTemp_IsbL-0700_RLatLon0.03_PT002H.grib2 2026-05-05 06:05 925K
20260505T00Z_MSC_CAPS_AirTemp_IsbL-0750_RLatLon0.03_PT002H.grib2 2026-05-05 06:05 953K
20260505T00Z_MSC_CAPS_AirTemp_IsbL-0800_RLatLon0.03_PT002H.grib2 2026-05-05 06:05 1.0M
20260505T00Z_MSC_CAPS_AirTemp_IsbL-0850_RLatLon0.03_PT002H.grib2 2026-05-05 06:05 1.0M
20260505T00Z_MSC_CAPS_AirTemp_IsbL-0875_RLatLon0.03_PT002H.grib2 2026-05-05 06:05 803K
20260505T00Z_MSC_CAPS_AirTemp_IsbL-0900_RLatLon0.03_PT002H.grib2 2026-05-05 06:05 1.0M
20260505T00Z_MSC_CAPS_AirTemp_IsbL-0925_RLatLon0.03_PT002H.grib2 2026-05-05 06:05 1.0M
20260505T00Z_MSC_CAPS_AirTemp_IsbL-0950_RLatLon0.03_PT002H.grib2 2026-05-05 06:05 1.0M
20260505T00Z_MSC_CAPS_AirTemp_IsbL-0970_RLatLon0.03_PT002H.grib2 2026-05-05 06:05 1.0M
20260505T00Z_MSC_CAPS_AirTemp_IsbL-0985_RLatLon0.03_PT002H.grib2 2026-05-05 06:05 1.0M
20260505T00Z_MSC_CAPS_AirTemp_IsbL-1000_RLatLon0.03_PT002H.grib2 2026-05-05 06:05 1.0M
20260505T00Z_MSC_CAPS_AirTemp_IsbL-1015_RLatLon0.03_PT002H.grib2 2026-05-05 06:05 1.0M
20260505T00Z_MSC_CAPS_Albedo_Sfc_RLatLon0.03_PT002H.grib2 2026-05-05 06:05 2.7M
20260505T00Z_MSC_CAPS_CAPE_Sfc_RLatLon0.03_PT002H.grib2 2026-05-05 06:05 148K
20260505T00Z_MSC_CAPS_CloudWater_EAtm_RLatLon0.03_PT002H.grib2 2026-05-05 06:05 1.3M
20260505T00Z_MSC_CAPS_ConvectivePrecip-Accum_Sfc_RLatLon0.03_PT002H.grib2 2026-05-05 06:05 1.3M
20260505T00Z_MSC_CAPS_DewPointDepression_AGL-120m_RLatLon0.03_PT002H.grib2 2026-05-05 06:05 1.9M
20260505T00Z_MSC_CAPS_DewPointDepression_AGL-2m_RLatLon0.03_PT002H.grib2 2026-05-05 06:05 2.1M
20260505T00Z_MSC_CAPS_DewPointDepression_AGL-40m_RLatLon0.03_PT002H.grib2 2026-05-05 06:05 2.0M
20260505T00Z_MSC_CAPS_DewPointDepression_AGL-80m_RLatLon0.03_PT002H.grib2 2026-05-05 06:05 1.9M
20260505T00Z_MSC_CAPS_DewPointDepression_IsbL-0050_RLatLon0.03_PT002H.grib2 2026-05-05 06:05 7.5K
20260505T00Z_MSC_CAPS_DewPointDepression_IsbL-0100_RLatLon0.03_PT002H.grib2 2026-05-05 06:05 73K
20260505T00Z_MSC_CAPS_DewPointDepression_IsbL-0150_RLatLon0.03_PT002H.grib2 2026-05-05 06:05 75K
20260505T00Z_MSC_CAPS_DewPointDepression_IsbL-0175_RLatLon0.03_PT002H.grib2 2026-05-05 06:05 184K
20260505T00Z_MSC_CAPS_DewPointDepression_IsbL-0200_RLatLon0.03_PT002H.grib2 2026-05-05 06:05 345K
20260505T00Z_MSC_CAPS_DewPointDepression_IsbL-0225_RLatLon0.03_PT002H.grib2 2026-05-05 06:05 585K
20260505T00Z_MSC_CAPS_DewPointDepression_IsbL-0250_RLatLon0.03_PT002H.grib2 2026-05-05 06:05 789K
20260505T00Z_MSC_CAPS_DewPointDepression_IsbL-0275_RLatLon0.03_PT002H.grib2 2026-05-05 06:05 910K
20260505T00Z_MSC_CAPS_DewPointDepression_IsbL-0300_RLatLon0.03_PT002H.grib2 2026-05-05 06:05 972K
20260505T00Z_MSC_CAPS_DewPointDepression_IsbL-0350_RLatLon0.03_PT002H.grib2 2026-05-05 06:05 1.0M
20260505T00Z_MSC_CAPS_DewPointDepression_IsbL-0400_RLatLon0.03_PT002H.grib2 2026-05-05 06:05 1.0M
20260505T00Z_MSC_CAPS_DewPointDepression_IsbL-0450_RLatLon0.03_PT002H.grib2 2026-05-05 06:05 1.0M
20260505T00Z_MSC_CAPS_DewPointDepression_IsbL-0500_RLatLon0.03_PT002H.grib2 2026-05-05 06:05 1.1M
20260505T00Z_MSC_CAPS_DewPointDepression_IsbL-0550_RLatLon0.03_PT002H.grib2 2026-05-05 06:05 1.1M
20260505T00Z_MSC_CAPS_DewPointDepression_IsbL-0600_RLatLon0.03_PT002H.grib2 2026-05-05 06:05 1.1M
20260505T00Z_MSC_CAPS_DewPointDepression_IsbL-0650_RLatLon0.03_PT002H.grib2 2026-05-05 06:05 1.1M
20260505T00Z_MSC_CAPS_DewPointDepression_IsbL-0700_RLatLon0.03_PT002H.grib2 2026-05-05 06:05 1.2M
20260505T00Z_MSC_CAPS_DewPointDepression_IsbL-0750_RLatLon0.03_PT002H.grib2 2026-05-05 06:05 1.2M
20260505T00Z_MSC_CAPS_DewPointDepression_IsbL-0800_RLatLon0.03_PT002H.grib2 2026-05-05 06:05 1.2M
20260505T00Z_MSC_CAPS_DewPointDepression_IsbL-0850_RLatLon0.03_PT002H.grib2 2026-05-05 06:05 1.3M
20260505T00Z_MSC_CAPS_DewPointDepression_IsbL-0875_RLatLon0.03_PT002H.grib2 2026-05-05 06:05 1.3M
20260505T00Z_MSC_CAPS_DewPointDepression_IsbL-0900_RLatLon0.03_PT002H.grib2 2026-05-05 06:05 1.3M
20260505T00Z_MSC_CAPS_DewPointDepression_IsbL-0925_RLatLon0.03_PT002H.grib2 2026-05-05 06:05 1.3M
20260505T00Z_MSC_CAPS_DewPointDepression_IsbL-0950_RLatLon0.03_PT002H.grib2 2026-05-05 06:05 1.3M
20260505T00Z_MSC_CAPS_DewPointDepression_IsbL-0970_RLatLon0.03_PT002H.grib2 2026-05-05 06:05 1.3M
20260505T00Z_MSC_CAPS_DewPointDepression_IsbL-0985_RLatLon0.03_PT002H.grib2 2026-05-05 06:05 1.3M
20260505T00Z_MSC_CAPS_DewPointDepression_IsbL-1000_RLatLon0.03_PT002H.grib2 2026-05-05 06:05 1.3M
20260505T00Z_MSC_CAPS_DewPointDepression_IsbL-1015_RLatLon0.03_PT002H.grib2 2026-05-05 06:05 1.3M
20260505T00Z_MSC_CAPS_DewPoint_AGL-120m_RLatLon0.03_PT002H.grib2 2026-05-05 06:05 3.3M
20260505T00Z_MSC_CAPS_DewPoint_AGL-2m_RLatLon0.03_PT002H.grib2 2026-05-05 06:05 1.7M
20260505T00Z_MSC_CAPS_DewPoint_AGL-40m_RLatLon0.03_PT002H.grib2 2026-05-05 06:05 3.6M
20260505T00Z_MSC_CAPS_DewPoint_AGL-80m_RLatLon0.03_PT002H.grib2 2026-05-05 06:05 3.3M
20260505T00Z_MSC_CAPS_DownwardLongwaveRadiationFlux-Accum_Sfc_RLatLon0.03_PT002H.grib2 2026-05-05 06:05 2.3M
20260505T00Z_MSC_CAPS_DownwardShortwaveRadiationFlux-Accum_NTAtm_RLatLon0.03_PT002H.grib2 2026-05-05 06:05 347K
20260505T00Z_MSC_CAPS_DownwardShortwaveRadiationFlux-Accum_Sfc_RLatLon0.03_PT002H.grib2 2026-05-05 06:05 1.6M
20260505T00Z_MSC_CAPS_FreezingRain-Accum_Sfc_RLatLon0.03_PT002H.grib2 2026-05-05 06:05 113K
20260505T00Z_MSC_CAPS_GeopotentialHeight_IsbL-0050_RLatLon0.03_PT002H.grib2 2026-05-05 06:05 649K
20260505T00Z_MSC_CAPS_GeopotentialHeight_IsbL-0100_RLatLon0.03_PT002H.grib2 2026-05-05 06:05 763K
20260505T00Z_MSC_CAPS_GeopotentialHeight_IsbL-0150_RLatLon0.03_PT002H.grib2 2026-05-05 06:05 616K
20260505T00Z_MSC_CAPS_GeopotentialHeight_IsbL-0175_RLatLon0.03_PT002H.grib2 2026-05-05 06:05 736K
20260505T00Z_MSC_CAPS_GeopotentialHeight_IsbL-0200_RLatLon0.03_PT002H.grib2 2026-05-05 06:05 748K
20260505T00Z_MSC_CAPS_GeopotentialHeight_IsbL-0225_RLatLon0.03_PT002H.grib2 2026-05-05 06:05 763K
20260505T00Z_MSC_CAPS_GeopotentialHeight_IsbL-0250_RLatLon0.03_PT002H.grib2 2026-05-05 06:05 769K
20260505T00Z_MSC_CAPS_GeopotentialHeight_IsbL-0275_RLatLon0.03_PT002H.grib2 2026-05-05 06:05 780K
20260505T00Z_MSC_CAPS_GeopotentialHeight_IsbL-0300_RLatLon0.03_PT002H.grib2 2026-05-05 06:05 785K
20260505T00Z_MSC_CAPS_GeopotentialHeight_IsbL-0350_RLatLon0.03_PT002H.grib2 2026-05-05 06:05 788K
20260505T00Z_MSC_CAPS_GeopotentialHeight_IsbL-0400_RLatLon0.03_PT002H.grib2 2026-05-05 06:05 783K
20260505T00Z_MSC_CAPS_GeopotentialHeight_IsbL-0450_RLatLon0.03_PT002H.grib2 2026-05-05 06:05 777K
20260505T00Z_MSC_CAPS_GeopotentialHeight_IsbL-0500_RLatLon0.03_PT002H.grib2 2026-05-05 06:05 769K
20260505T00Z_MSC_CAPS_GeopotentialHeight_IsbL-0550_RLatLon0.03_PT002H.grib2 2026-05-05 06:05 645K
20260505T00Z_MSC_CAPS_GeopotentialHeight_IsbL-0600_RLatLon0.03_PT002H.grib2 2026-05-05 06:05 805K
20260505T00Z_MSC_CAPS_GeopotentialHeight_IsbL-0650_RLatLon0.03_PT002H.grib2 2026-05-05 06:05 813K
20260505T00Z_MSC_CAPS_GeopotentialHeight_IsbL-0700_RLatLon0.03_PT002H.grib2 2026-05-05 06:05 815K
20260505T00Z_MSC_CAPS_GeopotentialHeight_IsbL-0750_RLatLon0.03_PT002H.grib2 2026-05-05 06:05 892K
20260505T00Z_MSC_CAPS_GeopotentialHeight_IsbL-0800_RLatLon0.03_PT002H.grib2 2026-05-05 06:05 823K
20260505T00Z_MSC_CAPS_GeopotentialHeight_IsbL-0850_RLatLon0.03_PT002H.grib2 2026-05-05 06:05 833K
20260505T00Z_MSC_CAPS_GeopotentialHeight_IsbL-0875_RLatLon0.03_PT002H.grib2 2026-05-05 06:05 824K
20260505T00Z_MSC_CAPS_GeopotentialHeight_IsbL-0900_RLatLon0.03_PT002H.grib2 2026-05-05 06:05 844K
20260505T00Z_MSC_CAPS_GeopotentialHeight_IsbL-0925_RLatLon0.03_PT002H.grib2 2026-05-05 06:05 853K
20260505T00Z_MSC_CAPS_GeopotentialHeight_IsbL-0950_RLatLon0.03_PT002H.grib2 2026-05-05 06:05 670K
20260505T00Z_MSC_CAPS_GeopotentialHeight_IsbL-0970_RLatLon0.03_PT002H.grib2 2026-05-05 06:05 677K
20260505T00Z_MSC_CAPS_GeopotentialHeight_IsbL-0985_RLatLon0.03_PT002H.grib2 2026-05-05 06:05 682K
20260505T00Z_MSC_CAPS_GeopotentialHeight_IsbL-1000_RLatLon0.03_PT002H.grib2 2026-05-05 06:05 686K
20260505T00Z_MSC_CAPS_GeopotentialHeight_IsbL-1015_RLatLon0.03_PT002H.grib2 2026-05-05 06:05 693K
20260505T00Z_MSC_CAPS_GeopotentialHeight_Sfc_RLatLon0.03_PT002H.grib2 2026-05-05 06:05 1.0M
20260505T00Z_MSC_CAPS_IcePellets-Accum_Sfc_RLatLon0.03_PT002H.grib2 2026-05-05 06:05 12K
20260505T00Z_MSC_CAPS_LatentHeatNetFlux_Sfc_RLatLon0.03_PT002H.grib2 2026-05-05 06:05 1.9M
20260505T00Z_MSC_CAPS_LiftedIndex-MU-VT_IsbL-0500_RLatLon0.03_PT002H.grib2 2026-05-05 06:05 3.3M
20260505T00Z_MSC_CAPS_MixedLayerThickness_Sfc_RLatLon0.03_PT002H.nc 2026-05-05 06:11 16M
20260505T00Z_MSC_CAPS_NetLongwaveRadiationFlux-Accum_Sfc_RLatLon0.03_PT002H.grib2 2026-05-05 06:05 3.1M
20260505T00Z_MSC_CAPS_NetShortwaveRadiationFlux-Accum_Sfc_RLatLon0.03_PT002H.grib2 2026-05-05 06:05 1.8M
20260505T00Z_MSC_CAPS_PlanetaryBoundaryLayerHeight_Sfc_RLatLon0.03_PT002H.grib2 2026-05-05 06:05 2.8M
20260505T00Z_MSC_CAPS_Precip-Accum_Sfc_RLatLon0.03_PT002H.grib2 2026-05-05 06:05 2.5M
20260505T00Z_MSC_CAPS_PrecipRate_Sfc_RLatLon0.03_PT002H.grib2 2026-05-05 06:05 236K
20260505T00Z_MSC_CAPS_PrecipType-Instant_Sfc_RLatLon0.03_PT002H.grib2 2026-05-05 06:05 1.2M
20260505T00Z_MSC_CAPS_Pressure_MSL_RLatLon0.03_PT002H.grib2 2026-05-05 06:05 918K
20260505T00Z_MSC_CAPS_Pressure_Sfc_RLatLon0.03_PT002H.grib2 2026-05-05 06:05 1.2M
20260505T00Z_MSC_CAPS_RadiativeTemp_Sfc_RLatLon0.03_PT002H.grib2 2026-05-05 06:05 2.1M
20260505T00Z_MSC_CAPS_Rain-Accum_Sfc_RLatLon0.03_PT002H.grib2 2026-05-05 06:05 1.1M
20260505T00Z_MSC_CAPS_RelativeHumidity_AGL-120m_RLatLon0.03_PT002H.grib2 2026-05-05 06:05 2.7M
20260505T00Z_MSC_CAPS_RelativeHumidity_AGL-2m_RLatLon0.03_PT002H.grib2 2026-05-05 06:05 3.0M
20260505T00Z_MSC_CAPS_RelativeHumidity_AGL-40m_RLatLon0.03_PT002H.grib2 2026-05-05 06:05 2.8M
20260505T00Z_MSC_CAPS_RelativeHumidity_AGL-80m_RLatLon0.03_PT002H.grib2 2026-05-05 06:05 2.7M
20260505T00Z_MSC_CAPS_RelativeHumidity_IsbL-0050_RLatLon0.03_PT002H.grib2 2026-05-05 06:05 960K
20260505T00Z_MSC_CAPS_RelativeHumidity_IsbL-0100_RLatLon0.03_PT002H.grib2 2026-05-05 06:05 846K
20260505T00Z_MSC_CAPS_RelativeHumidity_IsbL-0150_RLatLon0.03_PT002H.grib2 2026-05-05 06:05 586K
20260505T00Z_MSC_CAPS_RelativeHumidity_IsbL-0175_RLatLon0.03_PT002H.grib2 2026-05-05 06:05 606K
20260505T00Z_MSC_CAPS_RelativeHumidity_IsbL-0200_RLatLon0.03_PT002H.grib2 2026-05-05 06:05 613K
20260505T00Z_MSC_CAPS_RelativeHumidity_IsbL-0225_RLatLon0.03_PT002H.grib2 2026-05-05 06:05 823K
20260505T00Z_MSC_CAPS_RelativeHumidity_IsbL-0250_RLatLon0.03_PT002H.grib2 2026-05-05 06:05 1.0M
20260505T00Z_MSC_CAPS_RelativeHumidity_IsbL-0275_RLatLon0.03_PT002H.grib2 2026-05-05 06:05 1.3M
20260505T00Z_MSC_CAPS_RelativeHumidity_IsbL-0300_RLatLon0.03_PT002H.grib2 2026-05-05 06:05 1.4M
20260505T00Z_MSC_CAPS_RelativeHumidity_IsbL-0350_RLatLon0.03_PT002H.grib2 2026-05-05 06:05 1.8M
20260505T00Z_MSC_CAPS_RelativeHumidity_IsbL-0400_RLatLon0.03_PT002H.grib2 2026-05-05 06:05 2.0M
20260505T00Z_MSC_CAPS_RelativeHumidity_IsbL-0450_RLatLon0.03_PT002H.grib2 2026-05-05 06:05 1.9M
20260505T00Z_MSC_CAPS_RelativeHumidity_IsbL-0500_RLatLon0.03_PT002H.grib2 2026-05-05 06:05 2.0M
20260505T00Z_MSC_CAPS_RelativeHumidity_IsbL-0550_RLatLon0.03_PT002H.grib2 2026-05-05 06:05 2.0M
20260505T00Z_MSC_CAPS_RelativeHumidity_IsbL-0600_RLatLon0.03_PT002H.grib2 2026-05-05 06:05 2.0M
20260505T00Z_MSC_CAPS_RelativeHumidity_IsbL-0650_RLatLon0.03_PT002H.grib2 2026-05-05 06:05 2.1M
20260505T00Z_MSC_CAPS_RelativeHumidity_IsbL-0700_RLatLon0.03_PT002H.grib2 2026-05-05 06:05 2.1M
20260505T00Z_MSC_CAPS_RelativeHumidity_IsbL-0750_RLatLon0.03_PT002H.grib2 2026-05-05 06:05 2.2M
20260505T00Z_MSC_CAPS_RelativeHumidity_IsbL-0800_RLatLon0.03_PT002H.grib2 2026-05-05 06:05 2.4M
20260505T00Z_MSC_CAPS_RelativeHumidity_IsbL-0850_RLatLon0.03_PT002H.grib2 2026-05-05 06:05 2.5M
20260505T00Z_MSC_CAPS_RelativeHumidity_IsbL-0875_RLatLon0.03_PT002H.grib2 2026-05-05 06:05 2.5M
20260505T00Z_MSC_CAPS_RelativeHumidity_IsbL-0900_RLatLon0.03_PT002H.grib2 2026-05-05 06:05 2.5M
20260505T00Z_MSC_CAPS_RelativeHumidity_IsbL-0925_RLatLon0.03_PT002H.grib2 2026-05-05 06:05 2.6M
20260505T00Z_MSC_CAPS_RelativeHumidity_IsbL-0950_RLatLon0.03_PT002H.grib2 2026-05-05 06:05 2.6M
20260505T00Z_MSC_CAPS_RelativeHumidity_IsbL-0970_RLatLon0.03_PT002H.grib2 2026-05-05 06:05 2.7M
20260505T00Z_MSC_CAPS_RelativeHumidity_IsbL-0985_RLatLon0.03_PT002H.grib2 2026-05-05 06:05 2.8M
20260505T00Z_MSC_CAPS_RelativeHumidity_IsbL-1000_RLatLon0.03_PT002H.grib2 2026-05-05 06:05 2.8M
20260505T00Z_MSC_CAPS_RelativeHumidity_IsbL-1015_RLatLon0.03_PT002H.grib2 2026-05-05 06:05 2.8M
20260505T00Z_MSC_CAPS_Runoff-Accum_Sfc_RLatLon0.03_PT002H.grib2 2026-05-05 06:05 250K
20260505T00Z_MSC_CAPS_SeaIceAreaFraction_Sfc_RLatLon0.03_PT002H.nc 2026-05-05 06:11 15M
20260505T00Z_MSC_CAPS_SeaIceCompressiveStrength_Sfc_RLatLon0.03_PT002H.nc 2026-05-05 06:11 15M
20260505T00Z_MSC_CAPS_SeaIceDivergence_Sfc_RLatLon0.03_PT002H.nc 2026-05-05 06:11 15M
20260505T00Z_MSC_CAPS_SeaIceInternalPressure_Sfc_RLatLon0.03_PT002H.nc 2026-05-05 06:11 15M
20260505T00Z_MSC_CAPS_SeaIceShear_Sfc_RLatLon0.03_PT002H.nc 2026-05-05 06:11 14M
20260505T00Z_MSC_CAPS_SeaIceSnowTemp_Sfc_RLatLon0.03_PT002H.nc 2026-05-05 06:11 14M
20260505T00Z_MSC_CAPS_SeaIceSnowVolume_Sfc_RLatLon0.03_PT002H.nc 2026-05-05 06:11 15M
20260505T00Z_MSC_CAPS_SeaIceVelocityX_Sfc_RLatLon0.03_PT002H.nc 2026-05-05 06:11 15M
20260505T00Z_MSC_CAPS_SeaIceVelocityY_Sfc_RLatLon0.03_PT002H.nc 2026-05-05 06:11 15M
20260505T00Z_MSC_CAPS_SeaIceVolume_Sfc_RLatLon0.03_PT002H.nc 2026-05-05 06:11 15M
20260505T00Z_MSC_CAPS_SeaSurfaceHeight_Sfc_RLatLon0.03_PT002H.nc 2026-05-05 06:11 16M
20260505T00Z_MSC_CAPS_SeaWaterSalinity_DBS-0.5m_RLatLon0.03_PT002H.nc 2026-05-05 06:11 16M
20260505T00Z_MSC_CAPS_SeaWaterSalinity_DBS-all_RLatLon0.03_PT002H.nc 2026-05-05 06:11 107M
20260505T00Z_MSC_CAPS_SeaWaterTemp_DBS-0.5m_RLatLon0.03_PT002H.nc 2026-05-05 06:11 15M
20260505T00Z_MSC_CAPS_SeaWaterTemp_DBS-all_RLatLon0.03_PT002H.nc 2026-05-05 06:11 88M
20260505T00Z_MSC_CAPS_SeaWaterVelocityX_DBS-0.5m_RLatLon0.03_PT002H.nc 2026-05-05 06:11 17M
20260505T00Z_MSC_CAPS_SeaWaterVelocityX_DBS-all_RLatLon0.03_PT002H.nc 2026-05-05 06:11 209M
20260505T00Z_MSC_CAPS_SeaWaterVelocityY_DBS-0.5m_RLatLon0.03_PT002H.nc 2026-05-05 06:11 17M
20260505T00Z_MSC_CAPS_SeaWaterVelocityY_DBS-all_RLatLon0.03_PT002H.nc 2026-05-05 06:11 212M
20260505T00Z_MSC_CAPS_SensibleHeatNetFlux_Sfc_RLatLon0.03_PT002H.grib2 2026-05-05 06:05 2.1M
20260505T00Z_MSC_CAPS_ShowalterIndex_IsbL-0500_RLatLon0.03_PT002H.grib2 2026-05-05 06:05 3.8M
20260505T00Z_MSC_CAPS_Snow-Accum_Sfc_RLatLon0.03_PT002H.grib2 2026-05-05 06:05 1.7M
20260505T00Z_MSC_CAPS_SnowDensity_Sfc_RLatLon0.03_PT002H.grib2 2026-05-05 06:05 1.1M
20260505T00Z_MSC_CAPS_SnowDepthWaterEquivalent_Sfc_RLatLon0.03_PT002H.grib2 2026-05-05 06:05 650K
20260505T00Z_MSC_CAPS_SnowDepth_Sfc_RLatLon0.03_PT002H.grib2 2026-05-05 06:05 1.1M
20260505T00Z_MSC_CAPS_SoilTemp_DBS-0to10cm_RLatLon0.03_PT002H.grib2 2026-05-05 06:05 1.1M
20260505T00Z_MSC_CAPS_SoilTemp_Sfc_RLatLon0.03_PT002H.grib2 2026-05-05 06:05 1.8M
20260505T00Z_MSC_CAPS_SoilVolumetricIceContent_Sfc_RLatLon0.03_PT002H.grib2 2026-05-05 06:05 1.3M
20260505T00Z_MSC_CAPS_SoilVolumetricWaterContent_DBS-0to10cm_RLatLon0.03_PT002H.grib2 2026-05-05 06:05 1.2M
20260505T00Z_MSC_CAPS_SoilVolumetricWaterContent_DBS-0to1cm_RLatLon0.03_PT002H.grib2 2026-05-05 06:05 1.7M
20260505T00Z_MSC_CAPS_SpecificHumidity_AGL-120m_RLatLon0.03_PT002H.grib2 2026-05-05 06:05 1.3M
20260505T00Z_MSC_CAPS_SpecificHumidity_AGL-2m_RLatLon0.03_PT002H.grib2 2026-05-05 06:05 1.7M
20260505T00Z_MSC_CAPS_SpecificHumidity_AGL-40m_RLatLon0.03_PT002H.grib2 2026-05-05 06:05 1.4M
20260505T00Z_MSC_CAPS_SpecificHumidity_AGL-80m_RLatLon0.03_PT002H.grib2 2026-05-05 06:05 1.3M
20260505T00Z_MSC_CAPS_SpecificHumidity_IsbL-0050_RLatLon0.03_PT002H.grib2 2026-05-05 06:05 856K
20260505T00Z_MSC_CAPS_SpecificHumidity_IsbL-0100_RLatLon0.03_PT002H.grib2 2026-05-05 06:05 1.0M
20260505T00Z_MSC_CAPS_SpecificHumidity_IsbL-0150_RLatLon0.03_PT002H.grib2 2026-05-05 06:05 740K
20260505T00Z_MSC_CAPS_SpecificHumidity_IsbL-0175_RLatLon0.03_PT002H.grib2 2026-05-05 06:05 952K
20260505T00Z_MSC_CAPS_SpecificHumidity_IsbL-0200_RLatLon0.03_PT002H.grib2 2026-05-05 06:05 826K
20260505T00Z_MSC_CAPS_SpecificHumidity_IsbL-0225_RLatLon0.03_PT002H.grib2 2026-05-05 06:05 1.0M
20260505T00Z_MSC_CAPS_SpecificHumidity_IsbL-0250_RLatLon0.03_PT002H.grib2 2026-05-05 06:05 1.0M
20260505T00Z_MSC_CAPS_SpecificHumidity_IsbL-0275_RLatLon0.03_PT002H.grib2 2026-05-05 06:05 1.0M
20260505T00Z_MSC_CAPS_SpecificHumidity_IsbL-0300_RLatLon0.03_PT002H.grib2 2026-05-05 06:05 915K
20260505T00Z_MSC_CAPS_SpecificHumidity_IsbL-0350_RLatLon0.03_PT002H.grib2 2026-05-05 06:05 907K
20260505T00Z_MSC_CAPS_SpecificHumidity_IsbL-0400_RLatLon0.03_PT002H.grib2 2026-05-05 06:05 900K
20260505T00Z_MSC_CAPS_SpecificHumidity_IsbL-0450_RLatLon0.03_PT002H.grib2 2026-05-05 06:05 1.0M
20260505T00Z_MSC_CAPS_SpecificHumidity_IsbL-0500_RLatLon0.03_PT002H.grib2 2026-05-05 06:05 971K
20260505T00Z_MSC_CAPS_SpecificHumidity_IsbL-0550_RLatLon0.03_PT002H.grib2 2026-05-05 06:05 1.1M
20260505T00Z_MSC_CAPS_SpecificHumidity_IsbL-0600_RLatLon0.03_PT002H.grib2 2026-05-05 06:05 1.2M
20260505T00Z_MSC_CAPS_SpecificHumidity_IsbL-0650_RLatLon0.03_PT002H.grib2 2026-05-05 06:05 1.4M
20260505T00Z_MSC_CAPS_SpecificHumidity_IsbL-0700_RLatLon0.03_PT002H.grib2 2026-05-05 06:05 1.4M
20260505T00Z_MSC_CAPS_SpecificHumidity_IsbL-0750_RLatLon0.03_PT002H.grib2 2026-05-05 06:05 1.2M
20260505T00Z_MSC_CAPS_SpecificHumidity_IsbL-0800_RLatLon0.03_PT002H.grib2 2026-05-05 06:05 1.4M
20260505T00Z_MSC_CAPS_SpecificHumidity_IsbL-0850_RLatLon0.03_PT002H.grib2 2026-05-05 06:05 1.6M
20260505T00Z_MSC_CAPS_SpecificHumidity_IsbL-0875_RLatLon0.03_PT002H.grib2 2026-05-05 06:05 1.7M
20260505T00Z_MSC_CAPS_SpecificHumidity_IsbL-0900_RLatLon0.03_PT002H.grib2 2026-05-05 06:05 1.4M
20260505T00Z_MSC_CAPS_SpecificHumidity_IsbL-0925_RLatLon0.03_PT002H.grib2 2026-05-05 06:05 1.4M
20260505T00Z_MSC_CAPS_SpecificHumidity_IsbL-0950_RLatLon0.03_PT002H.grib2 2026-05-05 06:05 1.5M
20260505T00Z_MSC_CAPS_SpecificHumidity_IsbL-0970_RLatLon0.03_PT002H.grib2 2026-05-05 06:05 1.5M
20260505T00Z_MSC_CAPS_SpecificHumidity_IsbL-0985_RLatLon0.03_PT002H.grib2 2026-05-05 06:05 1.6M
20260505T00Z_MSC_CAPS_SpecificHumidity_IsbL-1000_RLatLon0.03_PT002H.grib2 2026-05-05 06:05 1.6M
20260505T00Z_MSC_CAPS_SpecificHumidity_IsbL-1015_RLatLon0.03_PT002H.grib2 2026-05-05 06:05 1.7M
20260505T00Z_MSC_CAPS_SpecificHumidity_Sfc_RLatLon0.03_PT002H.grib2 2026-05-05 06:05 2.1M
20260505T00Z_MSC_CAPS_StormRelativeHelicity_Sfc_RLatLon0.03_PT002H.grib2 2026-05-05 06:05 3.2M
20260505T00Z_MSC_CAPS_Thickness_IsbL-1000to0500_RLatLon0.03_PT002H.grib2 2026-05-05 06:05 468K
20260505T00Z_MSC_CAPS_TotalCloudCover_Sfc_RLatLon0.03_PT002H.grib2 2026-05-05 06:05 3.1M
20260505T00Z_MSC_CAPS_TurboclineDepth_Sfc_RLatLon0.03_PT002H.nc 2026-05-05 06:11 15M
20260505T00Z_MSC_CAPS_UpwardLongwaveRadiationFlux_NTAtm_RLatLon0.03_PT002H.grib2 2026-05-05 06:05 2.7M
20260505T00Z_MSC_CAPS_UpwardShortwaveRadiationFlux_NTAtm_RLatLon0.03_PT002H.grib2 2026-05-05 06:05 1.8M
20260505T00Z_MSC_CAPS_VerticalVelocity_IsbL-0250_RLatLon0.03_PT002H.grib2 2026-05-05 06:05 910K
20260505T00Z_MSC_CAPS_VerticalVelocity_IsbL-0500_RLatLon0.03_PT002H.grib2 2026-05-05 06:05 1.2M
20260505T00Z_MSC_CAPS_VerticalVelocity_IsbL-0700_RLatLon0.03_PT002H.grib2 2026-05-05 06:05 1.2M
20260505T00Z_MSC_CAPS_VerticalVelocity_IsbL-0850_RLatLon0.03_PT002H.grib2 2026-05-05 06:05 1.4M
20260505T00Z_MSC_CAPS_VerticalVelocity_IsbL-1000_RLatLon0.03_PT002H.grib2 2026-05-05 06:05 1.4M
20260505T00Z_MSC_CAPS_WindDir_AGL-10m_RLatLon0.03_PT002H.grib2 2026-05-05 06:05 2.4M
20260505T00Z_MSC_CAPS_WindDir_AGL-120m_RLatLon0.03_PT002H.grib2 2026-05-05 06:05 1.2M
20260505T00Z_MSC_CAPS_WindDir_AGL-40m_RLatLon0.03_PT002H.grib2 2026-05-05 06:05 1.3M
20260505T00Z_MSC_CAPS_WindDir_AGL-80m_RLatLon0.03_PT002H.grib2 2026-05-05 06:05 1.3M
20260505T00Z_MSC_CAPS_WindDir_IsbL-0050_RLatLon0.03_PT002H.grib2 2026-05-05 06:05 1.0M
20260505T00Z_MSC_CAPS_WindDir_IsbL-0100_RLatLon0.03_PT002H.grib2 2026-05-05 06:05 1.0M
20260505T00Z_MSC_CAPS_WindDir_IsbL-0150_RLatLon0.03_PT002H.grib2 2026-05-05 06:05 1.0M
20260505T00Z_MSC_CAPS_WindDir_IsbL-0175_RLatLon0.03_PT002H.grib2 2026-05-05 06:05 1.1M
20260505T00Z_MSC_CAPS_WindDir_IsbL-0200_RLatLon0.03_PT002H.grib2 2026-05-05 06:05 1.1M
20260505T00Z_MSC_CAPS_WindDir_IsbL-0225_RLatLon0.03_PT002H.grib2 2026-05-05 06:05 1.1M
20260505T00Z_MSC_CAPS_WindDir_IsbL-0250_RLatLon0.03_PT002H.grib2 2026-05-05 06:05 1.1M
20260505T00Z_MSC_CAPS_WindDir_IsbL-0275_RLatLon0.03_PT002H.grib2 2026-05-05 06:05 1.1M
20260505T00Z_MSC_CAPS_WindDir_IsbL-0300_RLatLon0.03_PT002H.grib2 2026-05-05 06:05 1.1M
20260505T00Z_MSC_CAPS_WindDir_IsbL-0350_RLatLon0.03_PT002H.grib2 2026-05-05 06:05 1.1M
20260505T00Z_MSC_CAPS_WindDir_IsbL-0400_RLatLon0.03_PT002H.grib2 2026-05-05 06:05 1.1M
20260505T00Z_MSC_CAPS_WindDir_IsbL-0450_RLatLon0.03_PT002H.grib2 2026-05-05 06:05 1.2M
20260505T00Z_MSC_CAPS_WindDir_IsbL-0500_RLatLon0.03_PT002H.grib2 2026-05-05 06:05 1.2M
20260505T00Z_MSC_CAPS_WindDir_IsbL-0550_RLatLon0.03_PT002H.grib2 2026-05-05 06:05 1.3M
20260505T00Z_MSC_CAPS_WindDir_IsbL-0600_RLatLon0.03_PT002H.grib2 2026-05-05 06:05 1.3M
20260505T00Z_MSC_CAPS_WindDir_IsbL-0650_RLatLon0.03_PT002H.grib2 2026-05-05 06:05 1.3M
20260505T00Z_MSC_CAPS_WindDir_IsbL-0700_RLatLon0.03_PT002H.grib2 2026-05-05 06:05 1.4M
20260505T00Z_MSC_CAPS_WindDir_IsbL-0750_RLatLon0.03_PT002H.grib2 2026-05-05 06:05 1.5M
20260505T00Z_MSC_CAPS_WindDir_IsbL-0800_RLatLon0.03_PT002H.grib2 2026-05-05 06:05 1.6M
20260505T00Z_MSC_CAPS_WindDir_IsbL-0850_RLatLon0.03_PT002H.grib2 2026-05-05 06:05 1.7M
20260505T00Z_MSC_CAPS_WindDir_IsbL-0875_RLatLon0.03_PT002H.grib2 2026-05-05 06:05 1.8M
20260505T00Z_MSC_CAPS_WindDir_IsbL-0900_RLatLon0.03_PT002H.grib2 2026-05-05 06:05 1.8M
20260505T00Z_MSC_CAPS_WindDir_IsbL-0925_RLatLon0.03_PT002H.grib2 2026-05-05 06:05 1.9M
20260505T00Z_MSC_CAPS_WindDir_IsbL-0950_RLatLon0.03_PT002H.grib2 2026-05-05 06:05 2.0M
20260505T00Z_MSC_CAPS_WindDir_IsbL-0970_RLatLon0.03_PT002H.grib2 2026-05-05 06:05 2.1M
20260505T00Z_MSC_CAPS_WindDir_IsbL-0985_RLatLon0.03_PT002H.grib2 2026-05-05 06:05 2.1M
20260505T00Z_MSC_CAPS_WindDir_IsbL-1000_RLatLon0.03_PT002H.grib2 2026-05-05 06:05 2.2M
20260505T00Z_MSC_CAPS_WindDir_IsbL-1015_RLatLon0.03_PT002H.grib2 2026-05-05 06:05 2.3M
20260505T00Z_MSC_CAPS_WindGust-Max_AGL-10m_RLatLon0.03_PT002H.grib2 2026-05-05 06:05 2.5M
20260505T00Z_MSC_CAPS_WindGust-Min_AGL-10m_RLatLon0.03_PT002H.grib2 2026-05-05 06:05 2.3M
20260505T00Z_MSC_CAPS_WindGust_AGL-10m_RLatLon0.03_PT002H.grib2 2026-05-05 06:05 2.4M
20260505T00Z_MSC_CAPS_WindSpeed_AGL-10m_RLatLon0.03_PT002H.grib2 2026-05-05 06:05 2.1M
20260505T00Z_MSC_CAPS_WindSpeed_AGL-120m_RLatLon0.03_PT002H.grib2 2026-05-05 06:05 1.1M
20260505T00Z_MSC_CAPS_WindSpeed_AGL-40m_RLatLon0.03_PT002H.grib2 2026-05-05 06:05 1.5M
20260505T00Z_MSC_CAPS_WindSpeed_AGL-80m_RLatLon0.03_PT002H.grib2 2026-05-05 06:05 1.1M
20260505T00Z_MSC_CAPS_WindSpeed_IsbL-0050_RLatLon0.03_PT002H.grib2 2026-05-05 06:05 1.0M
20260505T00Z_MSC_CAPS_WindSpeed_IsbL-0100_RLatLon0.03_PT002H.grib2 2026-05-05 06:05 954K
20260505T00Z_MSC_CAPS_WindSpeed_IsbL-0150_RLatLon0.03_PT002H.grib2 2026-05-05 06:05 1.1M
20260505T00Z_MSC_CAPS_WindSpeed_IsbL-0175_RLatLon0.03_PT002H.grib2 2026-05-05 06:05 1.1M
20260505T00Z_MSC_CAPS_WindSpeed_IsbL-0200_RLatLon0.03_PT002H.grib2 2026-05-05 06:05 936K
20260505T00Z_MSC_CAPS_WindSpeed_IsbL-0225_RLatLon0.03_PT002H.grib2 2026-05-05 06:05 953K
20260505T00Z_MSC_CAPS_WindSpeed_IsbL-0250_RLatLon0.03_PT002H.grib2 2026-05-05 06:05 971K
20260505T00Z_MSC_CAPS_WindSpeed_IsbL-0275_RLatLon0.03_PT002H.grib2 2026-05-05 06:05 1.0M
20260505T00Z_MSC_CAPS_WindSpeed_IsbL-0300_RLatLon0.03_PT002H.grib2 2026-05-05 06:05 1.0M
20260505T00Z_MSC_CAPS_WindSpeed_IsbL-0350_RLatLon0.03_PT002H.grib2 2026-05-05 06:05 1.0M
20260505T00Z_MSC_CAPS_WindSpeed_IsbL-0400_RLatLon0.03_PT002H.grib2 2026-05-05 06:05 1.0M
20260505T00Z_MSC_CAPS_WindSpeed_IsbL-0450_RLatLon0.03_PT002H.grib2 2026-05-05 06:05 1.0M
20260505T00Z_MSC_CAPS_WindSpeed_IsbL-0500_RLatLon0.03_PT002H.grib2 2026-05-05 06:05 1.4M
20260505T00Z_MSC_CAPS_WindSpeed_IsbL-0550_RLatLon0.03_PT002H.grib2 2026-05-05 06:05 1.4M
20260505T00Z_MSC_CAPS_WindSpeed_IsbL-0600_RLatLon0.03_PT002H.grib2 2026-05-05 06:05 1.5M
20260505T00Z_MSC_CAPS_WindSpeed_IsbL-0650_RLatLon0.03_PT002H.grib2 2026-05-05 06:05 1.4M
20260505T00Z_MSC_CAPS_WindSpeed_IsbL-0700_RLatLon0.03_PT002H.grib2 2026-05-05 06:05 1.5M
20260505T00Z_MSC_CAPS_WindSpeed_IsbL-0750_RLatLon0.03_PT002H.grib2 2026-05-05 06:05 1.6M
20260505T00Z_MSC_CAPS_WindSpeed_IsbL-0800_RLatLon0.03_PT002H.grib2 2026-05-05 06:05 1.6M
20260505T00Z_MSC_CAPS_WindSpeed_IsbL-0850_RLatLon0.03_PT002H.grib2 2026-05-05 06:05 1.7M
20260505T00Z_MSC_CAPS_WindSpeed_IsbL-0875_RLatLon0.03_PT002H.grib2 2026-05-05 06:05 1.7M
20260505T00Z_MSC_CAPS_WindSpeed_IsbL-0900_RLatLon0.03_PT002H.grib2 2026-05-05 06:05 1.8M
20260505T00Z_MSC_CAPS_WindSpeed_IsbL-0925_RLatLon0.03_PT002H.grib2 2026-05-05 06:05 1.8M
20260505T00Z_MSC_CAPS_WindSpeed_IsbL-0950_RLatLon0.03_PT002H.grib2 2026-05-05 06:05 1.9M
20260505T00Z_MSC_CAPS_WindSpeed_IsbL-0970_RLatLon0.03_PT002H.grib2 2026-05-05 06:05 1.9M
20260505T00Z_MSC_CAPS_WindSpeed_IsbL-0985_RLatLon0.03_PT002H.grib2 2026-05-05 06:05 2.0M
20260505T00Z_MSC_CAPS_WindSpeed_IsbL-1000_RLatLon0.03_PT002H.grib2 2026-05-05 06:05 2.0M
20260505T00Z_MSC_CAPS_WindSpeed_IsbL-1015_RLatLon0.03_PT002H.grib2 2026-05-05 06:05 2.1M
20260505T00Z_MSC_CAPS_WindU_AGL-10m_RLatLon0.03_PT002H.grib2 2026-05-05 06:05 2.0M
20260505T00Z_MSC_CAPS_WindU_AGL-120m_RLatLon0.03_PT002H.grib2 2026-05-05 06:05 890K
20260505T00Z_MSC_CAPS_WindU_AGL-40m_RLatLon0.03_PT002H.grib2 2026-05-05 06:05 1.2M
20260505T00Z_MSC_CAPS_WindU_AGL-80m_RLatLon0.03_PT002H.grib2 2026-05-05 06:05 1.2M
20260505T00Z_MSC_CAPS_WindU_IsbL-0050_RLatLon0.03_PT002H.grib2 2026-05-05 06:05 966K
20260505T00Z_MSC_CAPS_WindU_IsbL-0100_RLatLon0.03_PT002H.grib2 2026-05-05 06:05 801K
20260505T00Z_MSC_CAPS_WindU_IsbL-0150_RLatLon0.03_PT002H.grib2 2026-05-05 06:05 924K
20260505T00Z_MSC_CAPS_WindU_IsbL-0175_RLatLon0.03_PT002H.grib2 2026-05-05 06:05 725K
20260505T00Z_MSC_CAPS_WindU_IsbL-0200_RLatLon0.03_PT002H.grib2 2026-05-05 06:05 873K
20260505T00Z_MSC_CAPS_WindU_IsbL-0225_RLatLon0.03_PT002H.grib2 2026-05-05 06:05 890K
20260505T00Z_MSC_CAPS_WindU_IsbL-0250_RLatLon0.03_PT002H.grib2 2026-05-05 06:05 699K
20260505T00Z_MSC_CAPS_WindU_IsbL-0275_RLatLon0.03_PT002H.grib2 2026-05-05 06:05 709K
20260505T00Z_MSC_CAPS_WindU_IsbL-0300_RLatLon0.03_PT002H.grib2 2026-05-05 06:05 719K
20260505T00Z_MSC_CAPS_WindU_IsbL-0350_RLatLon0.03_PT002H.grib2 2026-05-05 06:05 734K
20260505T00Z_MSC_CAPS_WindU_IsbL-0400_RLatLon0.03_PT002H.grib2 2026-05-05 06:05 955K
20260505T00Z_MSC_CAPS_WindU_IsbL-0450_RLatLon0.03_PT002H.grib2 2026-05-05 06:05 969K
20260505T00Z_MSC_CAPS_WindU_IsbL-0500_RLatLon0.03_PT002H.grib2 2026-05-05 06:05 1.0M
20260505T00Z_MSC_CAPS_WindU_IsbL-0550_RLatLon0.03_PT002H.grib2 2026-05-05 06:05 1.0M
20260505T00Z_MSC_CAPS_WindU_IsbL-0600_RLatLon0.03_PT002H.grib2 2026-05-05 06:05 1.0M
20260505T00Z_MSC_CAPS_WindU_IsbL-0650_RLatLon0.03_PT002H.grib2 2026-05-05 06:05 957K
20260505T00Z_MSC_CAPS_WindU_IsbL-0700_RLatLon0.03_PT002H.grib2 2026-05-05 06:05 1.0M
20260505T00Z_MSC_CAPS_WindU_IsbL-0750_RLatLon0.03_PT002H.grib2 2026-05-05 06:05 1.0M
20260505T00Z_MSC_CAPS_WindU_IsbL-0800_RLatLon0.03_PT002H.grib2 2026-05-05 06:05 1.1M
20260505T00Z_MSC_CAPS_WindU_IsbL-0850_RLatLon0.03_PT002H.grib2 2026-05-05 06:05 1.2M
20260505T00Z_MSC_CAPS_WindU_IsbL-0875_RLatLon0.03_PT002H.grib2 2026-05-05 06:05 1.2M
20260505T00Z_MSC_CAPS_WindU_IsbL-0900_RLatLon0.03_PT002H.grib2 2026-05-05 06:05 1.3M
20260505T00Z_MSC_CAPS_WindU_IsbL-0925_RLatLon0.03_PT002H.grib2 2026-05-05 06:05 1.3M
20260505T00Z_MSC_CAPS_WindU_IsbL-0950_RLatLon0.03_PT002H.grib2 2026-05-05 06:05 1.3M
20260505T00Z_MSC_CAPS_WindU_IsbL-0970_RLatLon0.03_PT002H.grib2 2026-05-05 06:05 1.4M
20260505T00Z_MSC_CAPS_WindU_IsbL-0985_RLatLon0.03_PT002H.grib2 2026-05-05 06:05 1.4M
20260505T00Z_MSC_CAPS_WindU_IsbL-1000_RLatLon0.03_PT002H.grib2 2026-05-05 06:05 1.8M
20260505T00Z_MSC_CAPS_WindU_IsbL-1015_RLatLon0.03_PT002H.grib2 2026-05-05 06:05 2.0M
20260505T00Z_MSC_CAPS_WindV_AGL-10m_RLatLon0.03_PT002H.grib2 2026-05-05 06:05 2.0M
20260505T00Z_MSC_CAPS_WindV_AGL-120m_RLatLon0.03_PT002H.grib2 2026-05-05 06:05 1.1M
20260505T00Z_MSC_CAPS_WindV_AGL-40m_RLatLon0.03_PT002H.grib2 2026-05-05 06:05 1.2M
20260505T00Z_MSC_CAPS_WindV_AGL-80m_RLatLon0.03_PT002H.grib2 2026-05-05 06:05 1.2M
20260505T00Z_MSC_CAPS_WindV_IsbL-0050_RLatLon0.03_PT002H.grib2 2026-05-05 06:05 796K
20260505T00Z_MSC_CAPS_WindV_IsbL-0100_RLatLon0.03_PT002H.grib2 2026-05-05 06:05 971K
20260505T00Z_MSC_CAPS_WindV_IsbL-0150_RLatLon0.03_PT002H.grib2 2026-05-05 06:05 712K
20260505T00Z_MSC_CAPS_WindV_IsbL-0175_RLatLon0.03_PT002H.grib2 2026-05-05 06:05 846K
20260505T00Z_MSC_CAPS_WindV_IsbL-0200_RLatLon0.03_PT002H.grib2 2026-05-05 06:05 866K
20260505T00Z_MSC_CAPS_WindV_IsbL-0225_RLatLon0.03_PT002H.grib2 2026-05-05 06:05 673K
20260505T00Z_MSC_CAPS_WindV_IsbL-0250_RLatLon0.03_PT002H.grib2 2026-05-05 06:05 697K
20260505T00Z_MSC_CAPS_WindV_IsbL-0275_RLatLon0.03_PT002H.grib2 2026-05-05 06:05 709K
20260505T00Z_MSC_CAPS_WindV_IsbL-0300_RLatLon0.03_PT002H.grib2 2026-05-05 06:05 719K
20260505T00Z_MSC_CAPS_WindV_IsbL-0350_RLatLon0.03_PT002H.grib2 2026-05-05 06:05 730K
20260505T00Z_MSC_CAPS_WindV_IsbL-0400_RLatLon0.03_PT002H.grib2 2026-05-05 06:05 734K
20260505T00Z_MSC_CAPS_WindV_IsbL-0450_RLatLon0.03_PT002H.grib2 2026-05-05 06:05 966K
20260505T00Z_MSC_CAPS_WindV_IsbL-0500_RLatLon0.03_PT002H.grib2 2026-05-05 06:05 1.0M
20260505T00Z_MSC_CAPS_WindV_IsbL-0550_RLatLon0.03_PT002H.grib2 2026-05-05 06:05 1.0M
20260505T00Z_MSC_CAPS_WindV_IsbL-0600_RLatLon0.03_PT002H.grib2 2026-05-05 06:05 920K
20260505T00Z_MSC_CAPS_WindV_IsbL-0650_RLatLon0.03_PT002H.grib2 2026-05-05 06:05 1.2M
20260505T00Z_MSC_CAPS_WindV_IsbL-0700_RLatLon0.03_PT002H.grib2 2026-05-05 06:05 1.0M
20260505T00Z_MSC_CAPS_WindV_IsbL-0750_RLatLon0.03_PT002H.grib2 2026-05-05 06:05 1.0M
20260505T00Z_MSC_CAPS_WindV_IsbL-0800_RLatLon0.03_PT002H.grib2 2026-05-05 06:05 1.1M
20260505T00Z_MSC_CAPS_WindV_IsbL-0850_RLatLon0.03_PT002H.grib2 2026-05-05 06:05 1.2M
20260505T00Z_MSC_CAPS_WindV_IsbL-0875_RLatLon0.03_PT002H.grib2 2026-05-05 06:05 1.2M
20260505T00Z_MSC_CAPS_WindV_IsbL-0900_RLatLon0.03_PT002H.grib2 2026-05-05 06:05 1.6M
20260505T00Z_MSC_CAPS_WindV_IsbL-0925_RLatLon0.03_PT002H.grib2 2026-05-05 06:05 1.3M
20260505T00Z_MSC_CAPS_WindV_IsbL-0950_RLatLon0.03_PT002H.grib2 2026-05-05 06:05 1.3M
20260505T00Z_MSC_CAPS_WindV_IsbL-0970_RLatLon0.03_PT002H.grib2 2026-05-05 06:05 1.4M
20260505T00Z_MSC_CAPS_WindV_IsbL-0985_RLatLon0.03_PT002H.grib2 2026-05-05 06:05 1.4M
20260505T00Z_MSC_CAPS_WindV_IsbL-1000_RLatLon0.03_PT002H.grib2 2026-05-05 06:05 1.8M
20260505T00Z_MSC_CAPS_WindV_IsbL-1015_RLatLon0.03_PT002H.grib2 2026-05-05 06:05 2.0M